Wind_Speed
31 30 28 27 24 23 21 19 17 16 15 13 12 12 13 15 14 15 17 10 11 13 10 9 7 5 6 16 16 20 3 7 7 7 6 16 7 9 3 4 7 4 19 20 15
33 31 30 28 26 24 23 21 19 17 16 14 12 11 12 14 17 20 15 15 13 10 16 13 10 10 18 15 13 2 3 9 5 8 2 8 10 10 5 9 7 11 6 20 15
35 33 32 30 28 26 24 22 20 19 17 15 13 12 10 12 15 9 5 11 14 17 18 15 16 21 19 21 24 16 9 10 18 8 12 3 1 5 9 3 10 3 11 12 10
36 36 34 31 30 27 25 23 21 19 17 15 14 13 10 8 4 3 1 2 6 9 13 16 12 16 6 7 22 6 19 22 20 17 10 4 6 4 6 5 7 12 14 11 11
38 37 35 33 31 29 27 24 22 20 18 16 14 13 10 8 18 11 8 6 5 5 8 9 15 16 7 8 16 9 12 23 22 22 10 14 8 5 11 13 8 11 13 11 9
39 37 37 34 32 29 27 25 23 21 18 16 14 13 10 10 8 9 9 11 10 9 6 13 15 16 18 15 9 16 17 17 20 8 9 9 7 8 13 14 5 12 13 10 8
40 38 38 35 33 30 27 26 24 21 19 16 15 13 14 30 11 9 11 13 10 13 13 14 14 15 14 8 13 18 9 10 14 6 6 17 7 8 18 20 17 20 19 15 13
41 40 38 36 33 30 28 26 24 21 19 16 14 12 14 19 14 20 13 14 16 13 17 18 13 14 18 12 14 6 6 6 8 10 19 13 14 11 24 27 24 22 20 20 17
33 42 38 37 34 30 28 25 23 20 18 14 12 10 15 8 26 27 24 19 11 13 13 11 12 6 4 2 6 3 8 9 12 16 13 12 7 11 16 21 27 27 29 27 22
18 37 39 37 34 30 28 24 20 19 16 12 14 5 20 19 23 24 27 24 24 13 16 14 7 3 3 3 9 6 9 12 15 11 8 7 6 8 10 26 23 22 33 31 24
38 31 39 37 35 34 32 24 11 8 20 15 14 19 4 10 6 19 25 24 22 20 12 13 5 11 21 12 13 11 13 11 13 9 6 6 7 11 18 18 20 16 36 34 30
48 21 32 40 37 37 37 34 26 3 8 37 37 26 27 17 10 21 21 23 22 18 8 7 15 24 11 13 17 16 18 18 14 4 4 8 10 10 7 6 21 23 33 38 34
47 31 22 37 39 41 45 40 9 15 6 14 30 37 35 17 16 18 26 26 14 15 14 16 15 16 15 17 18 16 17 16 13 8 3 2 6 5 5 11 8 29 40 39 37
38 41 32 38 45 48 48 37 12 7 3 8 18 17 29 30 11 26 28 27 6 17 18 15 19 16 20 17 16 16 13 15 5 3 4 1 7 8 7 16 13 28 34 37 34
30 39 37 42 34 51 46 36 16 1 5 9 25 17 33 30 18 31 35 23 20 15 13 12 14 15 19 12 16 13 10 7 2 3 1 6 4 6 6 3 13 19 29 35 32
31 31 38 42 40 50 44 36 24 3 14 6 16 14 15 24 21 15 33 31 27 17 19 13 18 9 12 13 15 7 6 1 2 2 3 10 6 5 8 9 11 17 28 34 29
37 32 36 44 38 45 48 35 8 12 12 8 15 20 23 15 24 9 20 19 17 17 20 19 20 19 17 8 5 10 6 1 2 2 8 11 11 17 7 18 21 22 29 32 28
36 31 31 43 39 57 59 14 8 10 17 7 15 24 22 14 20 27 13 18 24 17 6 17 16 20 10 14 11 8 9 5 6 5 5 15 7 6 4 26 30 31 33 29 24
33 29 33 40 40 67 51 17 15 12 21 6 17 22 19 20 8 21 29 25 20 22 16 11 16 9 19 6 13 7 10 13 1 2 1 4 3 6 11 18 24 27 30 26 24
35 28 28 35 52 60 21 16 12 15 16 28 13 11 17 21 16 20 16 19 22 21 22 13 4 15 18 14 14 12 8 9 4 5 6 5 5 7 11 16 17 17 24 27 21
35 12 34 38 60 42 15 19 11 17 20 17 25 12 14 23 20 20 10 10 28 23 25 25 7 5 18 17 13 10 10 4 8 6 5 3 5 3 17 19 17 16 27 24 19
26 7 27 46 14 14 19 25 21 17 21 9 6 21 16 20 19 21 21 18 19 28 28 26 12 6 14 4 7 17 16 9 5 5 4 4 4 5 14 13 22 22 22 22 16
12 12 25 48 12 13 13 18 8 17 12 12 5 7 12 2 3 27 18 16 15 24 18 21 5 4 4 9 5 8 13 9 5 4 6 7 4 6 16 15 22 22 25 19 13
12 6 9 41 24 19 21 15 13 13 6 10 4 0 4 5 2 5 15 7 7 4 7 23 6 7 8 4 7 7 11 14 13 5 6 7 6 8 12 14 14 24 21 17 12
13 5 5 8 13 18 28 17 26 9 7 14 3 8 5 5 6 5 1 3 8 6 3 4 6 11 7 5 2 4 8 11 13 7 10 13 12 14 13 11 18 23 19 16 14
11 5 4 6 24 22 25 19 27 22 15 18 13 12 6 5 6 7 4 2 2 6 4 6 2 4 3 5 0 9 13 9 11 15 9 9 17 21 22 15 19 21 19 15 9
20 13 1 3 15 19 19 28 26 20 15 16 20 14 12 6 12 11 14 11 6 3 3 4 4 3 1 5 7 9 18 18 13 12 11 16 7 18 17 11 14 18 15 12 9
Wind_Direction
236 238 239 236 234 233 234 237 242 247 251 256 265 278 287 292 290 280 265 242 257 246 260 260 238 258 273 278 274 275 12 274 275 313 140 129 114 131 134 356 315 221 132 149 148
236 235 237 237 236 235 235 237 241 246 251 257 265 274 285 295 295 276 271 244 246 247 247 252 241 235 234 252 261 218 185 255 263 329 138 139 136 140 161 216 245 269 172 143 142
238 234 234 236 234 235 235 235 240 245 250 256 262 269 282 299 309 279 259 236 245 249 251 246 246 271 248 242 251 257 234 255 274 319 351 79 36 199 194 234 271 190 87 112 120
238 236 233 232 234 233 236 235 238 243 251 257 264 270 274 280 243 2 4 237 253 240 229 227 246 273 275 265 258 255 266 254 269 291 315 312 337 302 318 253 280 144 115 98 93
237 236 234 231 231 232 233 235 236 239 244 253 262 272 275 253 246 280 266 250 230 202 200 212 247 260 253 268 277 270 272 281 275 272 289 303 271 268 278 284 119 122 118 108 86
239 236 234 232 229 229 230 232 235 237 240 247 256 263 267 252 247 257 254 233 227 227 228 248 253 251 264 264 264 279 289 299 300 285 313 314 241 253 253 255 198 124 121 111 92
240 236 233 231 229 226 228 229 232 236 241 246 253 262 249 241 191 231 249 245 234 222 243 251 269 272 284 318 285 295 300 307 288 276 262 277 294 234 247 246 169 135 128 119 125
233 236 233 230 228 224 226 228 230 233 238 246 253 264 256 256 231 218 208 227 220 224 250 251 266 282 261 302 313 308 306 285 274 264 259 222 253 245 252 230 163 159 156 137 123
234 230 230 229 226 222 223 224 226 232 235 242 252 252 270 257 222 218 206 209 225 229 222 248 280 283 299 282 321 282 262 265 275 242 243 187 242 246 301 191 164 171 159 145 130
240 233 225 224 223 217 217 217 221 228 232 235 235 265 253 249 233 228 214 221 219 227 229 236 262 263 242 172 221 218 247 242 252 271 173 151 216 268 277 152 174 183 154 144 140
253 217 223 219 219 212 205 193 192 233 215 203 215 208 194 350 215 219 205 202 204 222 207 183 171 219 220 211 235 252 252 276 288 273 143 184 205 240 243 194 191 166 148 146 141
249 229 226 212 214 210 207 193 199 165 237 235 231 241 252 256 301 214 205 193 199 213 183 199 217 223 224 232 229 236 254 266 275 212 108 236 246 236 233 215 207 167 144 143 141
247 237 227 216 205 209 206 201 198 239 254 242 234 235 234 248 244 218 194 196 194 202 199 209 220 217 220 231 244 243 235 251 246 278 309 4 293 281 269 247 141 151 148 147 150
248 238 236 222 200 202 203 195 169 102 276 248 199 238 225 221 251 219 206 196 221 214 220 223 227 228 218 223 227 244 253 250 246 308 254 115 275 271 251 234 136 140 145 149 146
240 242 233 221 195 194 193 186 185 232 259 196 197 202 194 190 146 217 211 211 207 219 201 217 198 225 236 215 216 239 249 273 256 267 73 284 254 256 165 104 139 140 142 148 145
235 234 230 222 202 209 191 178 175 172 235 240 162 162 164 193 196 201 206 219 219 227 252 251 254 237 237 248 207 216 290 350 46 106 263 243 229 236 218 174 142 127 130 139 142
227 225 221 208 194 190 168 168 165 212 149 204 171 159 180 178 200 209 184 195 194 210 231 243 245 246 240 235 218 177 122 72 309 232 234 219 235 234 265 168 158 148 139 140 139
223 222 218 206 199 174 162 158 184 202 231 130 162 167 187 161 208 210 212 208 213 216 180 217 240 229 218 207 207 197 168 151 205 198 237 225 237 232 243 151 139 132 137 137 143
215 219 214 207 192 168 162 180 200 190 190 248 165 185 185 196 164 198 217 216 209 207 209 196 226 197 217 171 182 210 204 192 249 239 87 236 105 7 97 119 125 130 137 143 137
207 210 216 201 186 170 165 188 208 225 181 205 192 197 188 193 203 193 190 212 214 208 210 230 276 216 210 197 202 204 175 188 168 205 229 228 210 179 154 139 139 139 135 134 132
199 188 210 197 183 174 185 202 189 217 224 192 212 205 217 198 200 199 204 217 204 200 203 217 240 294 206 207 184 188 211 191 175 193 189 194 233 151 166 153 146 137 139 133 127
185 201 192 184 192 177 193 198 201 197 235 225 237 204 214 196 205 214 209 195 203 203 205 200 216 227 227 211 172 202 213 198 158 256 213 149 269 124 139 132 131 140 142 133 137
187 190 187 191 189 184 187 212 206 193 202 193 237 207 217 215 235 215 205 224 354 184 194 183 202 170 186 186 210 198 202 206 135 121 195 188 253 140 138 144 149 143 136 133 133
166 168 236 191 200 195 179 194 211 227 200 184 219 102 131 187 212 286 221 38 37 121 99 186 150 192 190 202 167 174 201 216 209 191 181 194 149 151 151 151 138 132 133 138 147
183 201 227 179 176 193 189 172 192 170 224 193 240 214 161 150 222 216 1 81 57 358 40 116 140 186 217 72 44 164 209 232 232 197 192 202 180 171 172 163 132 135 142 146 130
153 155 211 163 175 187 188 194 187 196 171 193 211 205 174 148 192 209 137 96 140 27 43 3 55 82 357 356 49 287 273 269 277 247 236 199 209 173 154 132 142 151 139 117 109
196 182 161 246 177 179 188 195 201 186 191 203 194 173 186 116 96 81 72 67 77 97 101 73 105 79 300 44 35 289 233 238 245 252 223 231 206 127 133 184 149 121 119 112 102
Height
1492 1495 1498 1500 1503 1504 1506 1507 1509 1510 1510 1510 1510 1511 1510 1508 1508 1507 1504 1505 1505 1507 1508 1509 1509 1511 1512 1511 1509 1509 1519 1523 1511 1500 1496 1491 1492 1497 1499 1501 1503 1503 1505 1508 1510
1487 1490 1493 1496 1499 1502 1503 1504 1506 1507 1508 1508 1509 1509 1508 1506 1505 1501 1502 1501 1503 1505 1506 1507 1508 1509 1511 1510 1508 1508 1517 1509 1501 1498 1495 1493 1494 1497 1500 1501 1503 1503 1505 1506 1509
1482 1485 1488 1492 1494 1498 1500 1500 1503 1505 1506 1506 1506 1506 1506 1505 1503 1496 1496 1498 1500 1502 1504 1506 1506 1508 1507 1507 1506 1504 1510 1499 1497 1497 1494 1495 1496 1497 1498 1502 1501 1502 1504 1507 1509
1476 1480 1483 1486 1490 1493 1497 1497 1499 1502 1503 1504 1504 1504 1504 1504 1504 1495 1496 1498 1499 1499 1501 1502 1505 1505 1504 1506 1502 1505 1498 1495 1493 1494 1494 1493 1494 1495 1496 1499 1500 1499 1502 1504 1506
1470 1474 1478 1481 1485 1488 1492 1494 1496 1498 1499 1501 1502 1501 1503 1502 1493 1493 1495 1497 1499 1499 1500 1502 1503 1504 1503 1500 1500 1498 1495 1492 1490 1491 1491 1492 1492 1495 1495 1498 1499 1498 1500 1503 1505
1464 1468 1473 1476 1479 1483 1487 1490 1492 1495 1496 1498 1499 1499 1500 1499 1491 1491 1493 1494 1497 1498 1499 1501 1501 1501 1500 1498 1499 1495 1492 1491 1489 1487 1489 1491 1491 1492 1494 1496 1497 1497 1500 1503 1505
1458 1462 1466 1470 1475 1478 1483 1486 1489 1492 1494 1495 1496 1495 1494 1483 1488 1490 1490 1491 1493 1495 1497 1500 1499 1499 1497 1496 1494 1492 1494 1489 1486 1487 1487 1490 1493 1490 1490 1493 1494 1496 1499 1503 1505
1450 1455 1460 1465 1469 1474 1479 1482 1485 1488 1490 1493 1493 1492 1484 1481 1484 1485 1485 1488 1491 1494 1496 1497 1497 1495 1495 1496 1493 1496 1494 1503 1485 1485 1483 1490 1497 1484 1485 1487 1490 1493 1497 1501 1505
1437 1448 1453 1458 1465 1469 1475 1479 1482 1486 1487 1489 1491 1490 1481 1476 1474 1477 1481 1484 1488 1492 1492 1494 1497 1495 1493 1498 1506 1498 1510 1503 1490 1479 1480 1484 1489 1479 1477 1473 1485 1490 1494 1498 1504
1430 1438 1445 1451 1458 1463 1471 1475 1480 1482 1485 1487 1488 1492 1475 1467 1469 1471 1475 1480 1484 1489 1492 1493 1496 1497 1495 1502 1514 1508 1504 1493 1490 1474 1468 1477 1481 1476 1478 1476 1481 1485 1490 1495 1501
1425 1426 1435 1443 1451 1456 1465 1471 1481 1482 1478 1470 1468 1464 1459 1465 1467 1467 1471 1475 1480 1485 1486 1490 1500 1498 1484 1489 1489 1490 1492 1493 1482 1471 1471 1479 1481 1478 1475 1477 1477 1481 1487 1494 1499
1417 1416 1424 1434 1442 1449 1456 1458 1462 1469 1467 1463 1462 1463 1460 1464 1466 1462 1469 1473 1475 1478 1481 1489 1492 1472 1481 1483 1485 1487 1489 1488 1478 1471 1475 1480 1482 1473 1471 1472 1473 1478 1483 1489 1496
1402 1407 1411 1421 1431 1443 1443 1452 1466 1465 1465 1453 1451 1453 1459 1462 1461 1458 1463 1465 1465 1472 1475 1478 1471 1472 1476 1478 1481 1479 1483 1482 1483 1470 1470 1477 1484 1474 1466 1466 1469 1473 1478 1485 1488
1391 1402 1415 1412 1422 1430 1434 1453 1463 1463 1467 1441 1437 1437 1449 1458 1451 1451 1457 1461 1463 1466 1468 1466 1466 1466 1470 1471 1472 1480 1469 1470 1472 1480 1497 1472 1497 1476 1467 1464 1469 1474 1478 1483 1488
1384 1396 1404 1404 1407 1416 1429 1449 1462 1464 1480 1416 1416 1422 1425 1434 1436 1440 1448 1452 1455 1457 1460 1454 1455 1461 1462 1460 1462 1471 1465 1466 1469 1476 1482 1483 1494 1470 1466 1469 1471 1472 1477 1482 1487
1377 1386 1394 1400 1398 1411 1424 1445 1461 1472 1451 1404 1398 1410 1421 1425 1431 1433 1440 1447 1450 1453 1449 1450 1446 1450 1453 1452 1453 1458 1465 1466 1471 1480 1501 1480 1484 1480 1465 1464 1472 1474 1478 1483 1487
1373 1381 1388 1393 1390 1404 1421 1437 1457 1450 1396 1393 1394 1400 1409 1416 1428 1426 1431 1436 1441 1458 1454 1449 1445 1445 1447 1452 1448 1455 1471 1496 1502 1502 1496 1468 1477 1461 1449 1448 1456 1465 1474 1480 1486
1366 1371 1376 1386 1388 1396 1409 1426 1436 1394 1394 1371 1381 1398 1405 1410 1417 1422 1424 1431 1430 1433 1440 1451 1456 1443 1436 1440 1450 1454 1465 1496 1501 1500 1485 1459 1469 1458 1440 1444 1456 1465 1473 1480 1488
1362 1363 1369 1377 1380 1391 1395 1405 1387 1387 1391 1385 1382 1390 1399 1400 1405 1419 1417 1415 1414 1424 1437 1440 1441 1425 1429 1432 1438 1451 1456 1454 1471 1468 1486 1468 1461 1454 1448 1453 1459 1467 1474 1481 1487
1352 1353 1361 1369 1377 1382 1383 1380 1379 1375 1374 1383 1386 1380 1391 1396 1403 1409 1412 1403 1410 1413 1422 1425 1439 1420 1418 1426 1430 1437 1442 1463 1470 1487 1488 1463 1460 1464 1460 1460 1463 1468 1473 1479 1484
1344 1349 1351 1361 1365 1368 1368 1367 1372 1371 1372 1377 1383 1385 1381 1387 1391 1397 1394 1394 1396 1404 1411 1421 1427 1426 1416 1418 1431 1438 1444 1447 1455 1469 1479 1474 1458 1438 1447 1452 1460 1468 1473 1478 1482
1337 1342 1341 1349 1347 1352 1359 1352 1366 1369 1371 1375 1374 1375 1375 1377 1384 1389 1391 1386 1385 1393 1402 1406 1422 1434 1419 1415 1417 1423 1431 1442 1472 1472 1476 1481 1466 1438 1446 1454 1459 1467 1473 1478 1483
1327 1334 1333 1337 1333 1346 1352 1361 1360 1363 1365 1371 1371 1368 1369 1374 1388 1377 1378 1379 1382 1383 1389 1401 1416 1437 1426 1421 1417 1425 1427 1432 1445 1458 1462 1471 1469 1445 1447 1454 1459 1465 1471 1477 1482
1320 1323 1326 1327 1329 1337 1348 1354 1363 1362 1361 1366 1367 1367 1369 1374 1376 1380 1374 1381 1381 1383 1384 1390 1405 1418 1429 1416 1416 1426 1422 1424 1433 1458 1456 1457 1455 1453 1453 1455 1459 1465 1471 1476 1480
1307 1311 1308 1303 1322 1332 1339 1346 1358 1359 1363 1363 1365 1364 1365 1375 1382 1384 1383 1382 1384 1388 1389 1390 1407 1405 1407 1408 1413 1415 1420 1423 1427 1433 1444 1439 1442 1448 1449 1452 1459 1463 1469 1474 1477
1300 1307 1309 1307 1315 1331 1336 1338 1344 1350 1353 1354 1359 1364 1366 1376 1378 1384 1384 1383 1386 1390 1396 1397 1417 1414 1421 1414 1416 1420 1418 1423 1427 1422 1424 1427 1428 1429 1442 1450 1458 1462 1465 1470 1474
1296 1301 1303 1302 1314 1322 1322 1324 1331 1347 1348 1349 1355 1359 1367 1379 1380 1384 1386 1388 1392 1395 1401 1406 1416 1422 1424 1422 1431 1438 1420 1417 1417 1414 1414 1423 1422 1422 1442 1451 1455 1458 1461 1466 1471